sat.trackr.live / text

‹ back to catalog

STARLINK-34011

NORAD 63845 · 2025-093K

PAYLOAD ACTIVE UNKNOWN

§ Identity

Operator
Country
US
Launch date
2025-05-07
Launch site
AFETR
Launch vehicle
Mass (kg)
RCS (m²)

Purposes: comms

External: N2YO · Heavens-Above · Gunter

§ Orbital elements

Epoch: 2026-09-19T17:32:37.062528Z

Period
94.26 min
Inclination
43.0002°
Eccentricity
0.0001273
Mean motion
15.27610444 rev/d
Perigee alt
482.1 km
Apogee alt
483.8 km
Semi-major
6,861.1 km
B*
5.0700e-4
RAAN
62.4629°
Arg perigee
123.3663°
Mean anomaly
236.7311°
Rev number
7,742

§ Raw data

STARLINK-340111 63845U 25093K   26262.73098452  .00013728  00000+0  50700-3 0  99962 63845  43.0002  62.4629 0001273 123.3663 236.7311 15.27610444 77420

JSON: /api/v1/satellites/63845 · /tle

For live sub-satellite position, see the globe view (requires WebGL).

§ Visibility from observer

Set your observer location to see the next 7 days of passes ≥ 10°. The values pass through the URL so the page stays shareable.

No JS? Fill the form by hand. The geolocation button needs JavaScript.